Location: Follega
(52.8850°N, 5.7362°E)
Time: 07:35:04
(UTC+00:00)

ERS-1 Rocket - Pass Details

Date: 03 October 2020
Orbit: 753 x 757 km, 98.5° (Epoch: 30 October)

Event Time Altitude Azimuth Distance (km) Brightness Sun altitude
Exits shadow 19:18:01 17° 49° (NE) 1,865 4.7 -20.1°
Drops below altitude 10° 19:20:59 10° 13° (NNE) 2,300 5.6 -20.5°
Sets 19:24:02 0° 354° (N) 3,231 6.6 -20.9°
